Location: Red Rock Farm
(35.2100°N, 97.2200°W)
Time: 08:43:29
(UTC-05:00)

Daily predictions for brighter satellites

Satellite Brightness Start Highest point End
(mag) Time Altitude Azimuth Time Altitude Azimuth Time Altitude Azimuth
Hubble Space Telescope 2.7 20:58:27 10° WSW 21:01:20 18° SSW 21:04:13 10° SSE
Cosmos 2251 Rocket 3.8 20:56:54 10° S 21:01:58 49° ESE 21:07:06 10° NNE
RESURS DK-1 3.5 20:59:56 10° NW 21:03:52 43° WSW 21:07:47 10° S
Cosmos 1025 Rocket 3.3 20:59:40 10° SSE 21:03:54 49° E 21:08:09 10° NNE
Cosmos 1892 Rocket 4.3 21:00:00 10° SSE 21:03:57 33° E 21:07:57 10° NNE
FENGYUN 3A 3.8 20:58:51 10° SSE 21:04:08 62° ENE 21:09:27 10° N
Cosmos 1812 4.3 21:06:22 10° SSW 21:09:58 38° W 21:13:37 10° N
BREEZE-M DEB (TANK) 4.3 21:09:10 10° NNW 21:10:53 14° NNE 21:12:16 10° ENE
Atlas Centaur 2 3.7 21:04:54 10° SSW 21:11:14 30° SSE 21:18:14 10° E
OTV 4 0.9 21:10:01 10° W 21:12:55 47° SSW 21:15:32 12° SE
ALOS 2.3 21:09:01 10° SSE 21:13:40 81° ENE 21:18:21 10° N
Cosmos 1315 Rocket 4.4 21:10:12 10° NNW 21:14:02 38° W 21:17:47 10° SSW
COSMOS 2455 4.5 21:13:44 10° SE 21:16:16 13° ESE 21:18:47 10° ENE
Cosmos 2237 Rocket 2.8 21:12:29 10° SSW 21:18:01 61° WNW 21:23:37 10° NNE
Envisat 4.2 21:16:48 11° ESE 21:20:51 26° ENE 21:25:01 10° NNE
ERS-1 Rocket 3.2 21:17:28 10° SSE 21:22:19 54° ENE 21:27:13 10° N
Cosmos 1939 Rocket 4.0 21:19:32 12° SE 21:22:48 29° ENE 21:26:23 10° NNE
CZ-2D R/B 4.1 21:23:40 10° S 21:27:26 50° W 21:31:15 10° NNW
Cosmos 2278 Rocket 2.3 21:22:59 10° NNW 21:28:41 87° WSW 21:34:21 10° SSE
SL-24 R/B - RUBIN 2 4.3 21:24:35 10° SSW 21:29:48 82° WNW 21:35:47 10° NNE
GEOS 3 Rocket 4.0 21:27:37 10° SSE 21:32:50 62° WSW 21:38:02 10° NW
Cosmos 2233 Rocket 4.2 21:26:41 10° N 21:32:56 79° W 21:39:07 10° S
Cosmos 1726 Rocket 3.6 21:28:35 10° N 21:33:00 61° E 21:37:07 11° SSE
USA 234 4.3 21:28:11 10° E 21:34:01 35° NNE 21:39:51 10° NNW
YAOGAN 11 4.2 21:29:41 10° S 21:34:04 76° WSW 21:38:25 10° NNW
Lacrosse 5 rocket 2.6 21:34:07 10° WSW 21:37:45 42° NW 21:41:35 10° NNE
Cosmos 1464 Rocket 4.2 21:34:06 10° N 21:40:04 52° E 21:45:12 14° SSE
Cosmos 2058 Rocket 3.2 21:37:10 10° N 21:41:28 56° E 21:44:45 16° SSE
SL-16 R/B 2.2 21:38:37 10° SSW 21:44:17 86° WNW 21:49:58 10° NNE
OAO 3 Copernicus 4.3 21:39:34 10° W 21:44:39 89° S 21:48:51 15° E
Abrixas rocket 4.5 21:43:49 10° NNW 21:46:23 19° NNE 21:48:52 10° ENE
Aureole 2 Rocket 2.9 21:42:59 10° S 21:46:58 50° ESE 21:50:39 10° NNE
Cosmos 1666 3.4 21:43:57 10° NNE 21:47:35 36° E 21:49:18 24° SE
Cosmos 1602 Rocket 4.2 21:45:02 19° SSE 21:47:44 36° E 21:51:49 10° NNE
Okean 2 3.3 21:43:48 10° S 21:47:58 77° E 21:52:09 10° N
deb Chang Zheng 4 3.9 21:44:52 10° N 21:49:15 70° WNW 21:53:35 10° SSW
Meteor 1-23 Rocket 4.2 21:47:47 10° S 21:53:24 89° W 21:59:07 10° N
Cosmos 1743 3.3 21:53:01 10° NNW 21:56:48 56° W 22:00:13 12° S
Cosmos 2034 Rocket 4.2 21:51:06 10° N 21:57:20 54° E 22:01:30 21° SSE
Cosmos 494 Rocket 4.1 21:52:42 10° SSW 21:57:48 76° WNW 22:02:55 10° NNE
UNK 4.3 21:54:08 10° NNE 21:59:27 55° ESE 22:04:38 12° S
Cosmos 1461 4.5 21:58:45 10° N 22:02:10 22° NE 22:03:39 19° E
PSLV R/B 3.3 22:02:55 10° SW 22:06:25 60° SSE 22:07:53 31° E
CZ-2C R/B 3.2 22:06:03 11° SW 22:07:32 16° W 22:09:08 10° NW
H-2A R/B 2.8 22:08:27 15° S 22:11:45 48° W 22:15:54 10° NNW
MetOp-B 4.3 22:10:02 28° SE 22:12:41 56° ENE 22:17:55 10° N
Cosmos 1603 3.6 22:07:26 10° S 22:12:58 61° ESE 22:18:29 10° NNE
DEBRIS 2.9 22:10:16 10° NW 22:14:30 41° NNE 22:15:02 36° ENE
CZ-4 R/B 4.4 22:12:27 10° NNE 22:17:10 41° E 22:18:28 35° SE
Milstar 3 Cent rocket 3.1 22:12:35 10° W 22:18:23 29° SSW 22:19:51 25° S
Geosat 4.3 22:13:41 10° NE 22:18:27 42° ESE 22:19:56 33° SSE
SPOT 5 2.6 22:17:32 32° SSE 22:19:38 90° NW 22:24:01 10° NNW
Cosmos 1331 Rocket 4.4 22:16:04 10° NNW 22:21:11 59° WSW 22:24:16 23° S
Meteor 2-9 Rocket 4.3 22:15:45 10° NNW 22:21:25 77° W 22:25:16 22° S
Cosmos 1626 Rocket 3.5 22:18:55 23° S 22:21:38 89° W 22:26:05 10° N
CZ-4 SHROUD 3.6 22:22:15 45° SSW 22:22:55 59° WSW 22:26:03 10° NNW
Cosmos 1302 Rocket 3.9 22:24:29 10° NNW 22:29:45 88° WSW 22:31:50 38° SSE
Cosmos 2297 4.4 22:24:43 10° NNW 22:30:12 50° WSW 22:33:35 23° S
SeaSat 1 2.7 22:32:57 34° S 22:35:00 62° WSW 22:39:55 10° NNW
APEX 3.7 22:32:09 10° NNW 22:36:21 83° WSW 22:37:52 46° SSE
Cosmos 1943 3.6 22:39:28 40° ESE 22:39:39 40° ESE 22:44:55 10° NE
Meteor 2-12 Rocket 4.4 22:34:43 10° N 22:40:47 65° E 22:42:43 43° SE
CZ-4B R/B 3.6 22:35:47 10° N 22:40:51 74° WNW 22:44:18 21° SSW
Cosmos 2228 4.2 22:38:38 10° NNW 22:42:46 40° W 22:44:51 24° SW
YAOGAN 6 2.6 22:47:30 78° W 22:47:30 78° W 22:51:14 10° NNW
Terra 2.9 22:51:59 30° ENE 22:51:59 30° ENE 22:56:06 10° N
CZ-4C R/B 3.8 22:53:47 55° ENE 22:53:47 55° ENE 22:57:45 10° N
Envisat 4.5 22:57:01 19° SW 22:59:41 31° W 23:04:10 10° NW
Cosmos 1943 Rocket 4.3 22:57:12 10° NNE 22:59:44 13° NE 23:01:00 12° ENE
Atlas Centaur 2 3.1 22:52:36 10° WSW 23:00:26 55° SSE 23:03:19 39° ESE
COSMOS 2455 2.9 22:56:15 14° SSW 23:01:23 78° WNW 23:07:26 10° NNE
SL-08 RB Rocket 3.5 23:01:19 79° ESE 23:01:26 80° ENE 23:06:00 10° N
Cosmos 407 Rocket 4.1 23:05:15 41° ENE 23:05:15 41° ENE 23:09:18 10° NNE
ATLAS 3B R/B 2.9 23:05:15 41° S 23:07:51 61° ESE 23:15:19 10° NE
USA 81 3.9 23:02:53 10° N 23:08:12 86° E 23:08:46 72° SSE
Cosmos 1758 Rocket 4.3 23:13:16 43° NE 23:13:16 43° NE 23:16:26 10° NNE
USA 234 3.3 23:15:11 52° S 23:16:41 66° SW 23:23:13 10° NW
CARTOSAT-1 4.2 23:17:46 48° NNE 23:17:46 48° NNE 23:21:12 10° N
Lacrosse 4 Rocket 3.5 23:26:58 18° NE 23:26:58 18° NE 23:28:08 10° NNE
Cosmos 2369 Rocket 2.3 23:22:23 10° NNW 23:27:59 59° ENE 23:28:01 59° ENE
ARGOS 3.8 23:29:43 43° SW 23:30:31 46° W 23:35:44 10° NNW
H-2A R/B 2.0 23:31:07 74° N 23:31:07 74° N 23:35:43 10° N
Cosmos 1825 Rocket 4.4 23:31:07 44° W 23:31:09 44° W 23:35:26 10° N
Meteor 1-22 Rocket 4.1 23:31:59 10° N 23:37:34 84° W 23:37:37 84° WSW
Nadezhda 4 Rocket 4.5 23:42:14 46° ENE 23:42:14 46° ENE 23:47:41 10° NNE
Cosmos 1992 Rocket 4.3 23:38:55 10° NNW 23:43:40 58° W 23:43:40 58° W
Cosmos 1346 Rocket 4.5 23:45:39 31° NW 23:45:39 31° NW 23:48:08 10° N
Cosmos 1634 Rocket 4.4 23:39:57 10° NNW 23:45:55 52° W 23:46:54 47° WSW
Cosmos 2263 4.4 23:41:34 10° NNW 23:46:42 59° NE 23:46:42 59° NE
DMSP B5D2-2 4.3 23:42:43 10° N 23:47:56 66° WNW 23:47:56 66° WNW
